Year,Month,Day,Hour,Minute,Value (Times are PST for temperature in C)
2016,12,14,00,00,-5.70
2016,12,14,00,01,-5.70
2016,12,14,00,02,-5.70
2016,12,14,00,03,-5.70
2016,12,14,00,04,-5.70
2016,12,14,00,05,-5.70
2016,12,14,00,06,-5.70
2016,12,14,00,07,-5.70
2016,12,14,00,08,-5.80
2016,12,14,00,09,-5.80
2016,12,14,00,10,-5.80
2016,12,14,00,11,-5.80
2016,12,14,00,12,-5.80
2016,12,14,00,13,-5.80
2016,12,14,00,14,-5.80
2016,12,14,00,15,-5.80
2016,12,14,00,16,-5.80
2016,12,14,00,17,-5.80
2016,12,14,00,18,-5.90
2016,12,14,00,19,-5.90
2016,12,14,00,20,-5.90
2016,12,14,00,21,-5.90
2016,12,14,00,22,-5.90
2016,12,14,00,23,-5.90
2016,12,14,00,24,-5.90
2016,12,14,00,25,-5.90
2016,12,14,00,26,-5.90
2016,12,14,00,27,-5.90
2016,12,14,00,28,-5.90
2016,12,14,00,29,-5.90
2016,12,14,00,30,-5.90
2016,12,14,00,31,-5.90
2016,12,14,00,32,-5.90
2016,12,14,00,33,-5.90
2016,12,14,00,34,-5.80
2016,12,14,00,35,-5.80
2016,12,14,00,36,-5.80
2016,12,14,00,37,-5.80
2016,12,14,00,38,-5.80
2016,12,14,00,39,-5.80
2016,12,14,00,40,-5.70
2016,12,14,00,41,-5.70
2016,12,14,00,42,-5.80
2016,12,14,00,43,-5.80
2016,12,14,00,44,-5.80
2016,12,14,00,45,-5.80
2016,12,14,00,46,-5.80
2016,12,14,00,47,-5.80
2016,12,14,00,48,-5.80
2016,12,14,00,49,-5.80
2016,12,14,00,50,-5.80
2016,12,14,00,51,-5.80
2016,12,14,00,52,-5.80
2016,12,14,00,53,-5.80
2016,12,14,00,54,-5.80
2016,12,14,00,55,-5.90
2016,12,14,00,56,-5.90
2016,12,14,00,57,-5.90
2016,12,14,00,58,-5.90
2016,12,14,00,59,-5.90
2016,12,14,01,00,-5.90
2016,12,14,01,01,-5.90
2016,12,14,01,02,-5.90
2016,12,14,01,03,-5.90
2016,12,14,01,04,-5.90
2016,12,14,01,05,-5.90
2016,12,14,01,06,-5.90
2016,12,14,01,07,-5.90
2016,12,14,01,08,-5.90
2016,12,14,01,09,-5.90
2016,12,14,01,10,-5.90
2016,12,14,01,11,-5.90
2016,12,14,01,12,-5.90
2016,12,14,01,13,-5.90
2016,12,14,01,14,-5.90
2016,12,14,01,15,-5.90
2016,12,14,01,16,-5.90
2016,12,14,01,17,-5.90
2016,12,14,01,18,-5.90
2016,12,14,01,19,-5.90
2016,12,14,01,20,-5.90
2016,12,14,01,21,-5.90
2016,12,14,01,22,-5.90
2016,12,14,01,23,-5.90
2016,12,14,01,24,-5.90
2016,12,14,01,25,-5.90
2016,12,14,01,26,-5.90
2016,12,14,01,27,-5.90
2016,12,14,01,28,-6.00
2016,12,14,01,29,-6.00
2016,12,14,01,30,-6.00
2016,12,14,01,31,-6.00
2016,12,14,01,32,-6.00
2016,12,14,01,33,-6.00
2016,12,14,01,34,-6.00
2016,12,14,01,35,-6.00
2016,12,14,01,36,-6.00
2016,12,14,01,37,-6.00
2016,12,14,01,38,-6.00
2016,12,14,01,39,-6.00
2016,12,14,01,40,-6.00
2016,12,14,01,41,-6.00
2016,12,14,01,42,-6.00
2016,12,14,01,43,-6.00
2016,12,14,01,44,-6.00
2016,12,14,01,45,-6.00
2016,12,14,01,46,-6.10
2016,12,14,01,47,-6.10
2016,12,14,01,48,-6.10
2016,12,14,01,49,-6.10
2016,12,14,01,50,-6.10
2016,12,14,01,51,-6.10
2016,12,14,01,52,-6.10
2016,12,14,01,53,-6.10
2016,12,14,01,54,-6.10
2016,12,14,01,55,-6.20
2016,12,14,01,56,-6.20
2016,12,14,01,57,-6.20
2016,12,14,01,58,-6.20
2016,12,14,01,59,-6.20
2016,12,14,02,00,-6.20
2016,12,14,02,01,-6.20
2016,12,14,02,02,-6.20
2016,12,14,02,03,-6.20
2016,12,14,02,04,-6.20
2016,12,14,02,05,-6.20
2016,12,14,02,06,-6.20
2016,12,14,02,07,-6.20
2016,12,14,02,08,-6.20
2016,12,14,02,09,-6.20
2016,12,14,02,10,-6.20
2016,12,14,02,11,-6.20
2016,12,14,02,12,-6.20
2016,12,14,02,13,-6.20
2016,12,14,02,14,-6.20
2016,12,14,02,15,-6.20
2016,12,14,02,16,-6.30
2016,12,14,02,17,-6.30
2016,12,14,02,18,-6.30
2016,12,14,02,19,-6.40
2016,12,14,02,20,-6.40
2016,12,14,02,21,-6.40
2016,12,14,02,22,-6.50
2016,12,14,02,23,-6.50
2016,12,14,02,24,-6.50
2016,12,14,02,25,-6.60
2016,12,14,02,26,-6.60
2016,12,14,02,27,-6.60
2016,12,14,02,28,-6.70
2016,12,14,02,29,-6.70
2016,12,14,02,30,-6.70
2016,12,14,02,31,-6.70
2016,12,14,02,32,-6.70
2016,12,14,02,33,-6.70
2016,12,14,02,34,-6.80
2016,12,14,02,35,-6.80
2016,12,14,02,36,-6.80
2016,12,14,02,37,-6.80
2016,12,14,02,38,-6.80
2016,12,14,02,39,-6.80
2016,12,14,02,40,-6.80
2016,12,14,02,41,-6.80
2016,12,14,02,42,-6.90
2016,12,14,02,43,-6.90
2016,12,14,02,44,-6.90
2016,12,14,02,45,-6.90
2016,12,14,02,46,-6.90
2016,12,14,02,47,-6.90
2016,12,14,02,48,-6.90
2016,12,14,02,49,-6.90
2016,12,14,02,50,-6.90
2016,12,14,02,51,-6.90
2016,12,14,02,52,-6.90
2016,12,14,02,53,-6.90
2016,12,14,02,54,-6.90
2016,12,14,02,55,-6.90
2016,12,14,02,56,-6.90
2016,12,14,02,57,-6.90
2016,12,14,02,58,-6.90
2016,12,14,02,59,-6.80
2016,12,14,03,00,-6.80
2016,12,14,03,01,-6.80
2016,12,14,03,02,-6.80
2016,12,14,03,03,-6.80
2016,12,14,03,04,-6.80
2016,12,14,03,05,-6.80
2016,12,14,03,06,-6.90
2016,12,14,03,07,-6.90
2016,12,14,03,08,-6.90
2016,12,14,03,09,-6.90
2016,12,14,03,10,-6.90
2016,12,14,03,11,-7.00
2016,12,14,03,12,-7.00
2016,12,14,03,13,-7.00
2016,12,14,03,14,-7.00
2016,12,14,03,15,-7.00
2016,12,14,03,16,-7.00
2016,12,14,03,17,-6.90
2016,12,14,03,18,-6.90
2016,12,14,03,19,-6.90
2016,12,14,03,20,-6.90
2016,12,14,03,21,-6.90
2016,12,14,03,22,-6.90
2016,12,14,03,23,-6.90
2016,12,14,03,24,-6.90
2016,12,14,03,25,-6.90
2016,12,14,03,26,-6.90
2016,12,14,03,27,-6.90
2016,12,14,03,28,-6.90
2016,12,14,03,29,-6.90
2016,12,14,03,30,-6.90
2016,12,14,03,31,-6.90
2016,12,14,03,32,-6.90
2016,12,14,03,33,-6.90
2016,12,14,03,34,-6.90
2016,12,14,03,35,-6.90
2016,12,14,03,36,-6.90
2016,12,14,03,37,-6.90
2016,12,14,03,38,-6.90
2016,12,14,03,39,-6.90
2016,12,14,03,40,-6.90
2016,12,14,03,41,-6.90
2016,12,14,03,42,-6.90
2016,12,14,03,43,-6.90
2016,12,14,03,44,-6.90
2016,12,14,03,45,-6.90
2016,12,14,03,46,-6.90
2016,12,14,03,47,-6.90
2016,12,14,03,48,-6.90
2016,12,14,03,49,-6.90
2016,12,14,03,50,-7.00
2016,12,14,03,51,-7.00
2016,12,14,03,52,-7.00
2016,12,14,03,53,-7.00
2016,12,14,03,54,-7.10
2016,12,14,03,55,-7.10
2016,12,14,03,56,-7.10
2016,12,14,03,57,-7.10
2016,12,14,03,58,-7.10
2016,12,14,03,59,-7.20
2016,12,14,04,00,-7.20
2016,12,14,04,01,-7.20
2016,12,14,04,02,-7.20
2016,12,14,04,03,-7.20
2016,12,14,04,04,-7.20
2016,12,14,04,05,-7.20
2016,12,14,04,06,-7.20
2016,12,14,04,07,-7.20
2016,12,14,04,08,-7.20
2016,12,14,04,09,-7.20
2016,12,14,04,10,-7.20
2016,12,14,04,11,-7.20
2016,12,14,04,12,-7.10
2016,12,14,04,13,-7.10
2016,12,14,04,14,-7.10
2016,12,14,04,15,-7.10
2016,12,14,04,16,-7.10
2016,12,14,04,17,-7.10
2016,12,14,04,18,-7.10
2016,12,14,04,19,-7.10
2016,12,14,04,20,-7.10
2016,12,14,04,21,-7.10
2016,12,14,04,22,-7.10
2016,12,14,04,23,-7.10
2016,12,14,04,24,-7.10
2016,12,14,04,25,-7.10
2016,12,14,04,26,-7.10
2016,12,14,04,27,-7.10
2016,12,14,04,28,-7.10
2016,12,14,04,29,-7.10
2016,12,14,04,30,-7.20
2016,12,14,04,31,-7.20
2016,12,14,04,32,-7.20
2016,12,14,04,33,-7.20
2016,12,14,04,34,-7.20
2016,12,14,04,35,-7.20
2016,12,14,04,36,-7.20
2016,12,14,04,37,-7.30
2016,12,14,04,38,-7.30
2016,12,14,04,39,-7.30
2016,12,14,04,40,-7.30
2016,12,14,04,41,-7.30
2016,12,14,04,42,-7.30
2016,12,14,04,43,-7.30
2016,12,14,04,44,-7.30
2016,12,14,04,45,-7.30
2016,12,14,04,46,-7.30
2016,12,14,04,47,-7.30
2016,12,14,04,48,-7.30
2016,12,14,04,49,-7.30
2016,12,14,04,50,-7.30
2016,12,14,04,51,-7.30
2016,12,14,04,52,-7.30
2016,12,14,04,53,-7.40
2016,12,14,04,54,-7.40
2016,12,14,04,55,-7.40
2016,12,14,04,56,-7.40
2016,12,14,04,57,-7.40
2016,12,14,04,58,-7.50
2016,12,14,04,59,-7.50
2016,12,14,05,00,-7.50
2016,12,14,05,01,-7.50
2016,12,14,05,02,-7.50
2016,12,14,05,03,-7.50
2016,12,14,05,04,-7.50
2016,12,14,05,05,-7.50
2016,12,14,05,06,-7.50
2016,12,14,05,07,-7.50
2016,12,14,05,08,-7.50
2016,12,14,05,09,-7.50
2016,12,14,05,10,-7.50
2016,12,14,05,11,-7.50
2016,12,14,05,12,-7.60
2016,12,14,05,13,-7.60
2016,12,14,05,14,-7.60
2016,12,14,05,15,-7.60
2016,12,14,05,16,-7.60
2016,12,14,05,17,-7.60
2016,12,14,05,18,-7.60
2016,12,14,05,19,-7.60
2016,12,14,05,20,-7.60
2016,12,14,05,21,-7.60
2016,12,14,05,22,-7.60
2016,12,14,05,23,-7.60
2016,12,14,05,24,-7.60
2016,12,14,05,25,-7.60
2016,12,14,05,26,-7.60
2016,12,14,05,27,-7.60
2016,12,14,05,28,-7.60
2016,12,14,05,29,-7.60
2016,12,14,05,30,-7.60
2016,12,14,05,31,-7.60
2016,12,14,05,32,-7.60
2016,12,14,05,33,-7.60
2016,12,14,05,34,-7.70
2016,12,14,05,35,-7.70
2016,12,14,05,36,-7.70
2016,12,14,05,37,-7.70
2016,12,14,05,38,-7.70
2016,12,14,05,39,-7.70
2016,12,14,05,40,-7.70
2016,12,14,05,41,-7.70
2016,12,14,05,42,-7.70
2016,12,14,05,43,-7.70
2016,12,14,05,44,-7.70
2016,12,14,05,45,-7.70
2016,12,14,05,46,-7.70
2016,12,14,05,47,-7.70
2016,12,14,05,48,-7.70
2016,12,14,05,49,-7.70
2016,12,14,05,50,-7.70
2016,12,14,05,51,-7.70
2016,12,14,05,52,-7.70
2016,12,14,05,53,-7.80
2016,12,14,05,54,-7.80
2016,12,14,05,55,-7.80
2016,12,14,05,56,-7.80
2016,12,14,05,57,-7.80
2016,12,14,05,58,-7.80
2016,12,14,05,59,-7.80
2016,12,14,06,00,-7.80
2016,12,14,06,01,-7.80
2016,12,14,06,02,-7.80
2016,12,14,06,03,-7.80
2016,12,14,06,04,-7.80
2016,12,14,06,05,-7.80
2016,12,14,06,06,-7.80
2016,12,14,06,07,-7.80
2016,12,14,06,08,-7.80
2016,12,14,06,09,-7.80
2016,12,14,06,10,-7.80
2016,12,14,06,11,-7.70
2016,12,14,06,12,-7.70
2016,12,14,06,13,-7.80
2016,12,14,06,14,-7.80
2016,12,14,06,15,-7.70
2016,12,14,06,16,-7.70
2016,12,14,06,17,-7.70
2016,12,14,06,18,-7.80
2016,12,14,06,19,-7.80
2016,12,14,06,20,-7.80
2016,12,14,06,21,-7.80
2016,12,14,06,22,-7.80
2016,12,14,06,23,-7.80
2016,12,14,06,24,-7.80
2016,12,14,06,25,-7.80
2016,12,14,06,26,-7.80
2016,12,14,06,27,-7.80
2016,12,14,06,28,-7.80
2016,12,14,06,29,-7.80
2016,12,14,06,30,-7.80
2016,12,14,06,31,-7.80
2016,12,14,06,32,-7.90
2016,12,14,06,33,-7.90
2016,12,14,06,34,-7.90
2016,12,14,06,35,-7.90
2016,12,14,06,36,-8.00
2016,12,14,06,37,-8.00
2016,12,14,06,38,-8.10
2016,12,14,06,39,-8.10
2016,12,14,06,40,-8.10
2016,12,14,06,41,-8.20
2016,12,14,06,42,-8.20
2016,12,14,06,43,-8.20
2016,12,14,06,44,-8.20
2016,12,14,06,45,-8.20
2016,12,14,06,46,-8.20
2016,12,14,06,47,-8.20
2016,12,14,06,48,-8.30
2016,12,14,06,49,-8.30
2016,12,14,06,50,-8.30
2016,12,14,06,51,-8.30
2016,12,14,06,52,-8.30
2016,12,14,06,53,-8.30
2016,12,14,06,54,-8.30
2016,12,14,06,55,-8.30
2016,12,14,06,56,-8.30
2016,12,14,06,57,-8.30
2016,12,14,06,58,-8.30
2016,12,14,06,59,-8.30
2016,12,14,07,00,-8.30
2016,12,14,07,01,-8.30
2016,12,14,07,02,-8.30
2016,12,14,07,03,-8.20
2016,12,14,07,04,-8.20
2016,12,14,07,05,-8.20
2016,12,14,07,06,-8.20
2016,12,14,07,07,-8.20
2016,12,14,07,08,-8.20
2016,12,14,07,09,-8.20
2016,12,14,07,10,-8.20
2016,12,14,07,11,-8.20
2016,12,14,07,12,-8.20
2016,12,14,07,13,-8.20
2016,12,14,07,14,-8.20
2016,12,14,07,15,-8.20
2016,12,14,07,16,-8.20
2016,12,14,07,17,-8.20
2016,12,14,07,18,-8.20
2016,12,14,07,19,-8.20
2016,12,14,07,20,-8.20
2016,12,14,07,21,-8.30
2016,12,14,07,22,-8.30
2016,12,14,07,23,-8.30
2016,12,14,07,24,-8.30
2016,12,14,07,25,-8.30
2016,12,14,07,26,-8.30
2016,12,14,07,27,-8.20
2016,12,14,07,28,-8.20
2016,12,14,07,29,-8.20
2016,12,14,07,30,-8.20
2016,12,14,07,31,-8.20
2016,12,14,07,32,-8.20
2016,12,14,07,33,-8.20
2016,12,14,07,34,-8.30
2016,12,14,07,35,-8.30
2016,12,14,07,36,-8.30
2016,12,14,07,37,-8.30
2016,12,14,07,38,-8.20
2016,12,14,07,39,-8.20
2016,12,14,07,40,-8.20
2016,12,14,07,41,-8.20
2016,12,14,07,42,-8.30
2016,12,14,07,43,-8.30
2016,12,14,07,44,-8.30
2016,12,14,07,45,-8.40
2016,12,14,07,46,-8.40
2016,12,14,07,47,-8.40
2016,12,14,07,48,-8.50
2016,12,14,07,49,-8.50
2016,12,14,07,50,-8.60
2016,12,14,07,51,-8.60
2016,12,14,07,52,-8.60
2016,12,14,07,53,-8.60
2016,12,14,07,54,-8.60
2016,12,14,07,55,-8.60
2016,12,14,07,56,-8.60
2016,12,14,07,57,-8.60
2016,12,14,07,58,-8.60
2016,12,14,07,59,-8.60
2016,12,14,08,00,-8.60
2016,12,14,08,01,-8.70
2016,12,14,08,02,-8.70
2016,12,14,08,03,-8.70
2016,12,14,08,04,-8.60
2016,12,14,08,05,-8.50
2016,12,14,08,06,-8.50
2016,12,14,08,07,-8.40
2016,12,14,08,08,-8.40
2016,12,14,08,09,-8.40
2016,12,14,08,10,-8.30
2016,12,14,08,11,-8.30
2016,12,14,08,12,-8.20
2016,12,14,08,13,-8.10
2016,12,14,08,14,-8.10
2016,12,14,08,15,-8.10
2016,12,14,08,16,-8.00
2016,12,14,08,17,-8.00
2016,12,14,08,18,-7.90
2016,12,14,08,19,-7.90
2016,12,14,08,20,-7.80
2016,12,14,08,21,-7.80
2016,12,14,08,22,-7.70
2016,12,14,08,23,-7.70
2016,12,14,08,24,-7.70
2016,12,14,08,25,-7.70
2016,12,14,08,26,-7.70
2016,12,14,08,27,-7.60
2016,12,14,08,28,-7.60
2016,12,14,08,29,-7.50
2016,12,14,08,30,-7.50
2016,12,14,08,31,-7.50
2016,12,14,08,32,-7.50
2016,12,14,08,33,-7.50
2016,12,14,08,34,-7.50
2016,12,14,08,35,-7.50
2016,12,14,08,36,-7.50
2016,12,14,08,37,-7.50
2016,12,14,08,38,-7.60
2016,12,14,08,39,-7.60
2016,12,14,08,40,-7.60
2016,12,14,08,41,-7.70
2016,12,14,08,42,-7.80
2016,12,14,08,43,-7.80
2016,12,14,08,44,-7.90
2016,12,14,08,45,-7.90
2016,12,14,08,46,-8.00
2016,12,14,08,47,-8.00
2016,12,14,08,48,-8.00
2016,12,14,08,49,-8.10
2016,12,14,08,50,-8.10
2016,12,14,08,51,-8.00
2016,12,14,08,52,-8.00
2016,12,14,08,53,-7.90
2016,12,14,08,54,-7.90
2016,12,14,08,55,-7.90
2016,12,14,08,56,-7.80
2016,12,14,08,57,-7.70
2016,12,14,08,58,-7.60
2016,12,14,08,59,-7.60
2016,12,14,09,00,-7.50
2016,12,14,09,01,-7.50
2016,12,14,09,02,-7.40
2016,12,14,09,03,-7.40
2016,12,14,09,04,-7.40
2016,12,14,09,05,-7.30
2016,12,14,09,06,-7.30
2016,12,14,09,07,-7.20
2016,12,14,09,08,-7.10
2016,12,14,09,09,-7.10
2016,12,14,09,10,-7.00
2016,12,14,09,11,-6.90
2016,12,14,09,12,-6.90
2016,12,14,09,13,-6.90
2016,12,14,09,14,-6.80
2016,12,14,09,15,-6.80
2016,12,14,09,16,-6.80
2016,12,14,09,17,-6.80
2016,12,14,09,18,-6.80
2016,12,14,09,19,-6.80
2016,12,14,09,20,-6.80
2016,12,14,09,21,-6.80
2016,12,14,09,22,-6.80
2016,12,14,09,23,-6.80
2016,12,14,09,24,-6.80
2016,12,14,09,25,-6.70
2016,12,14,09,26,-6.70
2016,12,14,09,27,-6.70
2016,12,14,09,28,-6.60
2016,12,14,09,29,-6.60
2016,12,14,09,30,-6.60
2016,12,14,09,31,-6.50
2016,12,14,09,32,-6.50
2016,12,14,09,33,-6.40
2016,12,14,09,34,-6.40
2016,12,14,09,35,-6.40
2016,12,14,09,36,-6.40
2016,12,14,09,37,-6.30
2016,12,14,09,38,-6.30
2016,12,14,09,39,-6.30
2016,12,14,09,40,-6.20
2016,12,14,09,41,-6.20
2016,12,14,09,42,-6.20
2016,12,14,09,43,-6.20
2016,12,14,09,44,-6.10
2016,12,14,09,45,-6.10
2016,12,14,09,46,-6.10
2016,12,14,09,47,-6.00
2016,12,14,09,48,-6.00
2016,12,14,09,49,-5.90
2016,12,14,09,50,-5.90
2016,12,14,09,51,-5.80
2016,12,14,09,52,-5.80
2016,12,14,09,53,-5.70
2016,12,14,09,54,-5.70
2016,12,14,09,55,-5.70
2016,12,14,09,56,-5.60
2016,12,14,09,57,-5.60
2016,12,14,09,58,-5.60
2016,12,14,09,59,-5.60
2016,12,14,10,00,-5.50
2016,12,14,10,01,-5.50
2016,12,14,10,02,-5.50
2016,12,14,10,03,-5.50
2016,12,14,10,04,-5.40
2016,12,14,10,05,-5.40
2016,12,14,10,06,-5.40
2016,12,14,10,07,-5.40
2016,12,14,10,08,-5.40
2016,12,14,10,09,-5.40
2016,12,14,10,10,-5.40
2016,12,14,10,11,-5.40
2016,12,14,10,12,-5.40
2016,12,14,10,13,-5.40
2016,12,14,10,14,-5.30
2016,12,14,10,15,-5.30
2016,12,14,10,16,-5.30
2016,12,14,10,17,-5.20
2016,12,14,10,18,-5.20
2016,12,14,10,19,-5.10
2016,12,14,10,20,-5.00
2016,12,14,10,21,-4.90
2016,12,14,10,22,-4.90
2016,12,14,10,23,-4.80
2016,12,14,10,24,-4.80
2016,12,14,10,25,-4.70
2016,12,14,10,26,-4.70
2016,12,14,10,27,-4.70
2016,12,14,10,28,-4.70
2016,12,14,10,29,-4.60
2016,12,14,10,30,-4.60
2016,12,14,10,31,-4.60
2016,12,14,10,32,-4.60
2016,12,14,10,33,-4.50
2016,12,14,10,34,-4.50
2016,12,14,10,35,-4.40
2016,12,14,10,36,-4.40
2016,12,14,10,37,-4.30
2016,12,14,10,38,-4.30
2016,12,14,10,39,-4.30
2016,12,14,10,40,-4.20
2016,12,14,10,41,-4.20
2016,12,14,10,42,-4.20
2016,12,14,10,43,-4.10
2016,12,14,10,44,-4.00
2016,12,14,10,45,-4.00
2016,12,14,10,46,-4.00
2016,12,14,10,47,-3.90
2016,12,14,10,48,-3.90
2016,12,14,10,49,-3.90
2016,12,14,10,50,-3.80
2016,12,14,10,51,-3.80
2016,12,14,10,52,-3.80
2016,12,14,10,53,-3.80
2016,12,14,10,54,-3.80
2016,12,14,10,55,-3.70
2016,12,14,10,56,-3.70
2016,12,14,10,57,-3.60
2016,12,14,10,58,-3.60
2016,12,14,10,59,-3.50
2016,12,14,11,00,-3.50
2016,12,14,11,01,-3.40
2016,12,14,11,02,-3.40
2016,12,14,11,03,-3.30
2016,12,14,11,04,-3.30
2016,12,14,11,05,-3.30
2016,12,14,11,06,-3.30
2016,12,14,11,07,-3.30
2016,12,14,11,08,-3.30
2016,12,14,11,09,-3.30
2016,12,14,11,10,-3.30
2016,12,14,11,11,-3.20
2016,12,14,11,12,-3.20
2016,12,14,11,13,-3.20
2016,12,14,11,14,-3.20
2016,12,14,11,15,-3.10
2016,12,14,11,16,-3.10
2016,12,14,11,17,-3.10
2016,12,14,11,18,-3.00
2016,12,14,11,19,-3.00
2016,12,14,11,20,-3.00
2016,12,14,11,21,-3.00
2016,12,14,11,22,-3.00
2016,12,14,11,23,-2.90
2016,12,14,11,24,-2.90
2016,12,14,11,25,-2.80
2016,12,14,11,26,-2.80
2016,12,14,11,27,-2.80
2016,12,14,11,28,-2.70
2016,12,14,11,29,-2.70
2016,12,14,11,30,-2.60
2016,12,14,11,31,-2.60
2016,12,14,11,32,-2.60
2016,12,14,11,33,-2.60
2016,12,14,11,34,-2.50
2016,12,14,11,35,-2.50
2016,12,14,11,36,-2.50
2016,12,14,11,37,-2.40
2016,12,14,11,38,-2.40
2016,12,14,11,39,-2.30
2016,12,14,11,40,-2.30
2016,12,14,11,41,-2.20
2016,12,14,11,42,-2.20
2016,12,14,11,43,-2.20
2016,12,14,11,44,-2.10
2016,12,14,11,45,-2.10
2016,12,14,11,46,-2.10
2016,12,14,11,47,-2.10
2016,12,14,11,48,-2.10
2016,12,14,11,49,-2.10
2016,12,14,11,50,-2.10
2016,12,14,11,51,-2.10
2016,12,14,11,52,-2.10
2016,12,14,11,53,-2.10
2016,12,14,11,54,-2.10
2016,12,14,11,55,-2.00
2016,12,14,11,56,-2.00
2016,12,14,11,57,-2.00
2016,12,14,11,58,-1.90
2016,12,14,11,59,-1.90
2016,12,14,12,00,-1.90
2016,12,14,12,01,-1.90
2016,12,14,12,02,-1.80
2016,12,14,12,03,-1.80
2016,12,14,12,04,-1.80
2016,12,14,12,05,-1.80
2016,12,14,12,06,-1.80
2016,12,14,12,07,-1.80
2016,12,14,12,08,-1.70
2016,12,14,12,09,-1.70
2016,12,14,12,10,-1.70
2016,12,14,12,11,-1.70
2016,12,14,12,12,-1.70
2016,12,14,12,13,-1.70
2016,12,14,12,14,-1.60
2016,12,14,12,15,-1.60
2016,12,14,12,16,-1.50
2016,12,14,12,17,-1.50
2016,12,14,12,18,-1.40
2016,12,14,12,19,-1.40
2016,12,14,12,20,-1.40
2016,12,14,12,21,-1.40
2016,12,14,12,22,-1.30
2016,12,14,12,23,-1.30
2016,12,14,12,24,-1.30
2016,12,14,12,25,-1.30
2016,12,14,12,26,-1.40
2016,12,14,12,27,-1.40
2016,12,14,12,28,-1.40
2016,12,14,12,29,-1.40
2016,12,14,12,30,-1.40
2016,12,14,12,31,-1.40
2016,12,14,12,32,-1.40
2016,12,14,12,33,-1.40
2016,12,14,12,34,-1.30
2016,12,14,12,35,-1.30
2016,12,14,12,36,-1.30
2016,12,14,12,37,-1.20
2016,12,14,12,38,-1.20
2016,12,14,12,39,-1.20
2016,12,14,12,40,-1.20
2016,12,14,12,41,-1.20
2016,12,14,12,42,-1.20
2016,12,14,12,43,-1.20
2016,12,14,12,44,-1.20
2016,12,14,12,45,-1.20
2016,12,14,12,46,-1.20
2016,12,14,12,47,-1.20
2016,12,14,12,48,-1.20
2016,12,14,12,49,-1.20
2016,12,14,12,50,-1.20
2016,12,14,12,51,-1.10
2016,12,14,12,52,-1.10
2016,12,14,12,53,-1.10
2016,12,14,12,54,-1.10
2016,12,14,12,55,-1.10
2016,12,14,12,56,-1.10
2016,12,14,12,57,-1.10
2016,12,14,12,58,-1.00
2016,12,14,12,59,-1.00
2016,12,14,13,00,-1.00
2016,12,14,13,01,-0.90
2016,12,14,13,02,-0.90
2016,12,14,13,03,-0.90
2016,12,14,13,04,-0.90
2016,12,14,13,05,-0.90
2016,12,14,13,06,-0.90
2016,12,14,13,07,-0.90
2016,12,14,13,08,-0.90
2016,12,14,13,09,-0.90
2016,12,14,13,10,-0.90
2016,12,14,13,11,-0.80
2016,12,14,13,12,-0.80
2016,12,14,13,13,-0.80
2016,12,14,13,14,-0.80
2016,12,14,13,15,-0.80
2016,12,14,13,16,-0.80
2016,12,14,13,17,-0.80
2016,12,14,13,18,-0.70
2016,12,14,13,19,-0.70
2016,12,14,13,20,-0.70
2016,12,14,13,21,-0.70
2016,12,14,13,22,-0.70
2016,12,14,13,23,-0.70
2016,12,14,13,24,-0.70
2016,12,14,13,25,-0.70
2016,12,14,13,26,-0.70
2016,12,14,13,27,-0.70
2016,12,14,13,28,-0.70
2016,12,14,13,29,-0.70
2016,12,14,13,30,-0.60
2016,12,14,13,31,-0.60
2016,12,14,13,32,-0.60
2016,12,14,13,33,-0.70
2016,12,14,13,34,-0.70
2016,12,14,13,35,-0.70
2016,12,14,13,36,-0.70
2016,12,14,13,37,-0.70
2016,12,14,13,38,-0.70
2016,12,14,13,39,-0.60
2016,12,14,13,40,-0.60
2016,12,14,13,41,-0.60
2016,12,14,13,42,-0.60
2016,12,14,13,43,-0.60
2016,12,14,13,44,-0.60
2016,12,14,13,45,-0.60
2016,12,14,13,46,-0.60
2016,12,14,13,47,-0.60
2016,12,14,13,48,-0.60
2016,12,14,13,49,-0.60
2016,12,14,13,50,-0.60
2016,12,14,13,51,-0.60
2016,12,14,13,52,-0.60
2016,12,14,13,53,-0.60
2016,12,14,13,54,-0.60
2016,12,14,13,55,-0.60
2016,12,14,13,56,-0.60
2016,12,14,13,57,-0.60
2016,12,14,13,58,-0.70
2016,12,14,13,59,-0.70
2016,12,14,14,00,-0.70
2016,12,14,14,01,-0.70
2016,12,14,14,02,-0.70
2016,12,14,14,03,-0.70
2016,12,14,14,04,-0.70
2016,12,14,14,05,-0.70
2016,12,14,14,06,-0.70
2016,12,14,14,07,-0.70
2016,12,14,14,08,-0.70
2016,12,14,14,09,-0.60
2016,12,14,14,10,-0.60
2016,12,14,14,11,-0.60
2016,12,14,14,12,-0.60
2016,12,14,14,13,-0.60
2016,12,14,14,14,-0.60
2016,12,14,14,15,-0.60
2016,12,14,14,16,-0.60
2016,12,14,14,17,-0.60
2016,12,14,14,18,-0.60
2016,12,14,14,19,-0.60
2016,12,14,14,20,-0.60
2016,12,14,14,21,-0.60
2016,12,14,14,22,-0.60
2016,12,14,14,23,-0.60
2016,12,14,14,24,-0.60
2016,12,14,14,25,-0.60
2016,12,14,14,26,-0.60
2016,12,14,14,27,-0.60
2016,12,14,14,28,-0.60
2016,12,14,14,29,-0.60
2016,12,14,14,30,-0.60
2016,12,14,14,31,-0.60
2016,12,14,14,32,-0.60
2016,12,14,14,33,-0.60
2016,12,14,14,34,-0.60
2016,12,14,14,35,-0.60
2016,12,14,14,36,-0.60
2016,12,14,14,37,-0.60
2016,12,14,14,38,-0.60
2016,12,14,14,39,-0.60
2016,12,14,14,40,-0.60
2016,12,14,14,41,-0.60
2016,12,14,14,42,-0.50
2016,12,14,14,43,-0.50
2016,12,14,14,44,-0.50
2016,12,14,14,45,-0.40
2016,12,14,14,46,-0.40
2016,12,14,14,47,-0.40
2016,12,14,14,48,-0.40
2016,12,14,14,49,-0.30
2016,12,14,14,50,-0.30
2016,12,14,14,51,-0.30
2016,12,14,14,52,-0.20
2016,12,14,14,53,-0.20
2016,12,14,14,54,-0.20
2016,12,14,14,55,-0.20
2016,12,14,14,56,-0.20
2016,12,14,14,57,-0.20
2016,12,14,14,58,-0.20
2016,12,14,14,59,-0.20
2016,12,14,15,00,-0.20
2016,12,14,15,01,-0.20
2016,12,14,15,02,-0.20
2016,12,14,15,03,-0.20
2016,12,14,15,04,-0.20
2016,12,14,15,05,-0.20
2016,12,14,15,06,-0.20
2016,12,14,15,07,-0.20
2016,12,14,15,08,-0.20
2016,12,14,15,09,-0.20
2016,12,14,15,10,-0.20
2016,12,14,15,11,-0.20
2016,12,14,15,12,-0.20
2016,12,14,15,13,-0.20
2016,12,14,15,14,-0.20
2016,12,14,15,15,-0.30
2016,12,14,15,16,-0.30
2016,12,14,15,17,-0.30
2016,12,14,15,18,-0.30
2016,12,14,15,19,-0.30
2016,12,14,15,20,-0.30
2016,12,14,15,21,-0.40
2016,12,14,15,22,-0.40
2016,12,14,15,23,-0.40
2016,12,14,15,24,-0.50
2016,12,14,15,25,-0.50
2016,12,14,15,26,-0.60
2016,12,14,15,27,-0.60
2016,12,14,15,28,-0.60
2016,12,14,15,29,-0.60
2016,12,14,15,30,-0.70
2016,12,14,15,31,-0.70
2016,12,14,15,32,-0.70
2016,12,14,15,33,-0.70
2016,12,14,15,34,-0.70
2016,12,14,15,35,-0.80
2016,12,14,15,36,-0.80
2016,12,14,15,37,-0.80
2016,12,14,15,38,-0.80
2016,12,14,15,39,-0.80
2016,12,14,15,40,-0.80
2016,12,14,15,41,-0.80
2016,12,14,15,42,-0.80
2016,12,14,15,43,-0.80
2016,12,14,15,44,-0.80
2016,12,14,15,45,-0.80
2016,12,14,15,46,-0.80
2016,12,14,15,47,-0.80
2016,12,14,15,48,-0.80
2016,12,14,15,49,-0.80
2016,12,14,15,50,-0.80
2016,12,14,15,51,-0.80
2016,12,14,15,52,-0.80
2016,12,14,15,53,-0.80
2016,12,14,15,54,-0.80
2016,12,14,15,55,-0.80
2016,12,14,15,56,-0.80
2016,12,14,15,57,-0.80
2016,12,14,15,58,-0.80
2016,12,14,15,59,-0.80
2016,12,14,16,00,-0.80
2016,12,14,16,01,-0.80
2016,12,14,16,02,-0.80
2016,12,14,16,03,-0.90
2016,12,14,16,04,-0.90
2016,12,14,16,05,-1.00
2016,12,14,16,06,-1.00
2016,12,14,16,07,-1.10
2016,12,14,16,08,-1.10
2016,12,14,16,09,-1.20
2016,12,14,16,10,-1.20
2016,12,14,16,11,-1.30
2016,12,14,16,12,-1.30
2016,12,14,16,13,-1.30
2016,12,14,16,14,-1.40
2016,12,14,16,15,-1.40
2016,12,14,16,16,-1.40
2016,12,14,16,17,-1.50
2016,12,14,16,18,-1.50
2016,12,14,16,19,-1.60
2016,12,14,16,20,-1.60
2016,12,14,16,21,-1.70
2016,12,14,16,22,-1.70
2016,12,14,16,23,-1.70
2016,12,14,16,24,-1.80
2016,12,14,16,25,-1.80
2016,12,14,16,26,-1.80
2016,12,14,16,27,-1.90
2016,12,14,16,28,-1.90
2016,12,14,16,29,-1.90
2016,12,14,16,30,-1.90
2016,12,14,16,31,-2.00
2016,12,14,16,32,-2.00
2016,12,14,16,33,-2.10
2016,12,14,16,34,-2.20
2016,12,14,16,35,-2.30
2016,12,14,16,36,-2.30
2016,12,14,16,37,-2.40
2016,12,14,16,38,-2.40
2016,12,14,16,39,-2.50
2016,12,14,16,40,-2.50
2016,12,14,16,41,-2.60
2016,12,14,16,42,-2.60
2016,12,14,16,43,-2.70
2016,12,14,16,44,-2.70
2016,12,14,16,45,-2.70
2016,12,14,16,46,-2.70
2016,12,14,16,47,-2.80
2016,12,14,16,48,-2.80
2016,12,14,16,49,-2.80
2016,12,14,16,50,-2.80
2016,12,14,16,51,-2.90
2016,12,14,16,52,-2.90
2016,12,14,16,53,-2.90
2016,12,14,16,54,-2.90
2016,12,14,16,55,-2.90
2016,12,14,16,56,-2.90
2016,12,14,16,57,-2.90
2016,12,14,16,58,-2.90
2016,12,14,16,59,-3.00
2016,12,14,17,00,-3.00
2016,12,14,17,01,-3.00
2016,12,14,17,02,-3.00
2016,12,14,17,03,-3.00
2016,12,14,17,04,-3.10
2016,12,14,17,05,-3.10
2016,12,14,17,06,-3.10
2016,12,14,17,07,-3.10
2016,12,14,17,08,-3.20
2016,12,14,17,09,-3.20
2016,12,14,17,10,-3.20
2016,12,14,17,11,-3.30
2016,12,14,17,12,-3.30
2016,12,14,17,13,-3.40
2016,12,14,17,14,-3.40
2016,12,14,17,15,-3.40
2016,12,14,17,16,-3.50
2016,12,14,17,17,-3.50
2016,12,14,17,18,-3.60
2016,12,14,17,19,-3.60